Location: Riverside
(39.1734°N, 77.8561°W)
Time: 10:39:37
(UTC+00:00)

OTV 5 (USA 277) - Visible Passes

Search period start: 14 October 2019 00:00
Search period end: 24 October 2019 00:00
Orbit: 310 x 324 km, 54.5° (Epoch: 08 October)

Date Brightness Start Highest point End Pass type
(mag) Time Alt. Az. Time Alt. Az. Time Alt. Az.
16 Oct ? 10:12:35 10° NNE 10:13:14 11° NNE 10:13:54 10° NE visible
17 Oct ? 10:25:56 10° NNW 10:28:05 20° NNE 10:30:13 10° E visible
18 Oct ? 10:40:05 10° NW 10:42:46 50° NE 10:45:25 10° ESE visible
19 Oct ? 09:23:15 14° NE 09:23:15 14° NE 09:24:24 10° ENE visible
19 Oct ? 10:54:40 10° WNW 10:57:18 45° SW 10:59:55 10° SSE visible
20 Oct ? 09:37:54 29° NE 09:37:54 29° NE 09:40:02 10° ESE visible
21 Oct ? 09:52:41 55° SE 09:52:41 55° SE 09:54:53 10° SE visible
22 Oct ? 10:07:36 20° SSW 10:07:36 20° SSW 10:08:57 10° S visible
